Lapse_Rate
1.5 1.2 0.5 -0.3 -0.5 -0.3 0.2 0.8 1.0 0.8 0.3 -0.3 -0.1 -0.3 -0.1 -0.4 -0.4 0.8 1.9 2.3 2.3 1.9 0.9 -0.1 -0.6 -0.8 -1.5 -2.0 -1.8 -2.0 -2.0 -1.8 -2.1 -2.0 -1.0 0.9 2.1 2.1 2.0 2.1 1.9 2.3 2.2
1.5 0.5 -0.7 -0.3 0.1 1.0 0.6 0.8 1.1 1.2 0.6 -0.3 -0.6 -0.3 -0.5 -0.5 -0.2 0.6 1.5 2.2 2.5 2.1 1.4 0.1 -0.9 -1.1 -1.2 -1.3 -1.5 -1.7 -1.6 -1.4 -1.7 -0.9 -0.8 0.3 2.0 2.6 3.0 2.3 3.0 1.9 2.6
2.7 1.0 0.4 1.0 0.4 0.6 0.6 1.3 1.1 0.7 0.2 -0.0 -0.3 -0.4 -0.4 -0.5 -0.3 -0.1 0.1 1.3 2.1 1.9 1.5 0.6 -0.2 -0.8 -1.3 -1.2 -1.4 -1.5 -1.1 -1.1 -0.9 -0.6 0.6 1.5 2.4 0.4 1.7 2.8 1.6 1.1 1.7
3.5 2.0 2.0 2.4 1.4 1.3 0.5 0.3 0.5 0.4 0.2 -0.1 -0.2 -0.1 -0.1 0.2 0.0 -0.0 -0.2 0.3 1.4 1.4 1.4 1.2 0.6 -0.1 -0.7 -0.5 -0.7 -0.1 -0.8 -0.9 -0.2 -0.3 1.2 1.0 2.3 3.2 1.6 1.2 1.0 0.7 2.0
4.0 3.3 2.7 2.8 2.6 1.6 0.6 0.3 0.2 0.2 0.4 0.1 -0.3 -0.5 -0.5 -0.8 -0.8 -0.8 -0.5 -0.2 0.4 0.9 1.0 0.9 0.5 -0.2 -0.5 -0.6 -0.3 0.1 0.2 -0.1 0.1 0.1 0.1 0.4 0.8 1.9 3.9 2.0 -0.2 0.1 1.1
4.1 4.0 4.0 3.2 2.3 1.4 0.9 0.3 0.2 0.1 0.4 0.4 0.0 -0.2 -0.3 -0.2 -0.6 -0.8 -1.1 -0.8 -0.8 -0.7 0.3 0.9 0.5 0.3 -0.1 -0.1 -0.0 0.3 0.1 -0.2 -0.4 -0.2 0.1 0.8 1.3 1.2 1.6 1.7 0.0 0.6 0.5
3.6 3.3 3.7 2.2 1.8 1.4 1.0 0.5 0.4 0.1 0.3 0.3 0.1 -0.1 -0.2 -0.0 0.0 -0.2 -0.4 -0.5 -0.6 -0.9 -0.4 -0.2 -0.3 -0.6 0.2 0.1 0.1 -0.1 -0.3 -0.4 -0.4 -0.2 0.1 0.6 1.4 2.3 2.6 3.1 2.8 3.0 1.2
3.1 3.7 3.1 1.8 1.4 1.6 1.1 0.2 0.2 0.3 0.7 0.3 0.3 -0.1 -0.0 -0.1 0.0 0.1 -0.1 -0.4 -0.6 -0.5 0.3 0.2 -0.1 0.0 0.4 0.3 0.0 -0.6 -0.5 -0.5 -0.7 -0.2 -0.1 0.7 1.1 1.8 2.7 3.6 3.9 3.9 3.0
3.6 3.6 2.5 1.7 1.3 1.1 1.0 0.0 -0.4 0.3 0.6 0.2 -0.3 -0.2 -0.2 0.0 0.6 0.5 0.1 -0.3 -0.3 0.5 -0.2 0.2 -0.1 0.2 0.4 0.6 0.3 -0.3 -0.3 0.1 0.2 0.0 0.2 0.1 0.9 1.0 1.6 2.4 3.3 4.4 5.1
3.5 2.0 1.8 1.6 1.3 1.2 0.4 0.4 0.5 0.6 0.4 0.1 -0.0 0.4 0.4 0.4 0.5 0.3 0.1 -0.0 0.1 0.2 0.5 0.5 0.3 0.3 0.3 0.6 0.6 0.5 0.5 0.6 0.4 0.7 0.6 0.5 0.7 1.1 1.3 1.7 2.3 3.0 4.1
1.7 1.9 1.7 1.4 1.1 0.7 0.5 0.7 0.5 0.3 0.4 0.0 0.2 0.2 0.2 0.5 0.3 -0.1 -0.1 -0.1 0.1 -0.1 -0.1 0.2 0.3 0.3 0.4 0.4 0.5 0.7 1.0 1.2 1.0 1.1 1.0 0.8 0.9 0.7 1.1 1.7 2.3 2.8 3.2
2.0 2.0 1.7 1.2 0.8 0.7 0.8 0.8 0.4 0.5 0.4 0.3 0.5 0.6 0.4 0.1 -0.2 -0.5 -0.5 -0.5 -0.6 -0.5 -0.4 -0.4 -0.3 0.1 0.2 0.4 1.0 1.1 2.1 1.3 1.3 1.1 1.0 0.7 2.6 0.9 1.3 1.5 1.9 2.2 2.5
3.3 2.1 1.5 0.9 0.9 1.1 1.1 1.1 0.8 0.6 0.7 0.6 0.6 0.7 0.6 0.3 0.2 0.1 0.2 0.2 0.2 0.1 -0.1 -0.3 0.1 0.8 0.8 1.0 1.3 1.9 2.0 1.8 1.9 1.5 1.4 1.2 1.1 0.7 0.8 1.0 1.3 1.5 3.4
2.9 2.2 1.5 0.9 0.8 1.1 1.1 0.8 1.0 0.8 0.5 0.4 0.3 0.3 -0.0 -0.2 -0.1 -0.1 0.1 0.2 0.2 -0.1 -0.0 -0.0 0.3 0.7 1.2 1.1 1.3 1.4 1.8 1.8 1.8 1.8 1.8 2.3 2.0 1.3 0.9 1.2 1.1 2.0 1.8
3.3 2.7 2.3 1.5 1.1 0.9 0.9 0.8 0.9 0.5 0.2 0.2 0.2 0.3 0.1 -0.0 -0.1 -0.1 -0.1 0.3 0.3 0.8 0.3 0.3 0.2 0.2 1.0 1.6 1.1 1.3 1.7 1.9 1.8 1.7 2.1 2.5 1.9 3.0 2.4 2.7 1.2 1.7 2.2
3.5 3.7 3.3 2.7 1.6 0.9 1.1 1.1 0.8 0.4 -0.0 -0.1 0.1 0.1 -0.0 -0.3 -0.4 -0.2 0.3 -0.0 0.2 0.2 0.3 0.1 0.1 0.4 1.4 2.6 3.9 3.9 1.7 2.0 2.4 2.2 2.0 2.6 3.8 4.0 5.1 6.1 4.9 3.0 2.4
3.9 4.1 3.1 2.1 1.7 1.5 1.2 1.1 0.8 0.4 0.3 0.2 0.5 0.2 -0.0 -0.0 0.4 0.6 0.7 1.2 1.1 0.5 0.5 0.2 0.2 0.4 0.9 2.7 3.6 4.4 4.2 2.2 2.1 2.2 2.3 2.3 3.7 4.0 3.9 6.6 7.0 7.1 7.5
4.1 3.7 2.5 2.3 2.1 1.4 1.1 0.6 0.7 0.7 0.5 0.1 0.1 1.0 1.3 1.8 1.9 1.7 1.7 1.7 2.0 1.7 1.8 1.9 1.7 1.6 1.5 3.3 4.1 4.4 4.0 3.2 2.3 2.0 2.1 2.5 2.9 2.7 3.4 3.8 4.0 3.6 3.8
3.4 2.8 2.2 2.0 1.5 1.2 1.0 0.4 0.5 0.2 0.3 1.1 1.6 2.4 2.4 2.5 2.5 2.4 2.4 2.5 2.1 2.6 2.9 3.1 2.8 2.5 2.3 3.3 4.1 4.5 3.6 3.6 2.5 2.7 2.4 3.0 3.5 4.1 6.1 3.5 4.3 4.0 3.3
3.0 3.1 2.7 2.0 1.7 1.8 0.8 0.6 1.0 1.6 2.0 2.9 3.0 3.0 3.0 2.8 3.0 2.9 2.8 2.8 2.3 3.1 3.2 3.0 3.0 3.4 3.1 3.5 4.4 5.2 4.6 4.2 4.2 4.0 3.1 4.8 4.2 5.5 6.7 5.4 4.6 4.4 3.7
4.5 3.7 3.0 2.3 2.1 1.6 0.9 1.1 1.3 2.0 3.0 3.0 3.0 2.9 2.8 3.0 3.2 3.5 3.8 3.9 3.8 3.6 3.2 3.1 3.4 3.2 2.8 2.2 4.2 5.0 5.1 4.8 4.7 4.4 3.4 3.4 6.3 6.0 7.1 5.7 6.1 4.8 4.7
4.5 3.9 2.5 1.9 1.7 1.6 1.3 0.9 1.1 2.5 2.2 2.4 2.7 2.8 2.8 3.4 4.4 4.0 4.4 4.1 4.1 4.4 4.3 4.5 4.4 4.4 4.0 3.9 4.0 5.1 5.8 6.2 5.5 4.8 3.8 3.3 5.3 7.3 7.0 7.2 8.6 7.0 7.6
3.2 2.9 2.5 1.5 1.1 1.6 1.6 1.2 2.3 2.4 2.5 2.4 2.2 2.8 3.0 3.4 3.8 3.8 4.3 4.8 4.9 4.8 4.8 5.7 6.2 6.2 5.5 4.4 4.5 5.4 6.1 6.8 6.9 5.4 5.2 5.6 6.1 6.0 5.8 7.8 8.6 9.0 7.0
3.4 3.2 2.3 1.8 1.6 1.8 1.5 1.4 1.9 2.3 1.7 2.1 2.6 2.9 3.3 3.9 4.5 4.3 4.3 4.5 4.7 5.6 7.2 7.3 7.1 7.0 6.7 5.4 4.4 3.5 5.0 6.1 6.3 6.8 6.1 5.8 5.7 5.4 6.4 7.7 8.5 6.9 5.7
3.1 2.6 2.1 1.9 2.0 1.7 1.4 1.7 2.0 2.2 2.1 2.2 2.6 2.8 3.0 3.3 4.0 4.3 4.9 5.6 6.3 7.8 7.4 7.5 7.3 6.4 6.4 6.4 7.1 6.8 5.7 4.6 5.0 6.2 5.1 5.1 5.1 5.2 5.8 6.3 5.0 5.0 5.2
2.1 1.9 1.9 1.5 1.9 2.0 1.7 1.8 2.2 2.5 2.5 2.4 2.5 3.0 3.7 3.8 4.2 4.6 4.9 6.1 7.8 8.4 8.8 8.0 7.7 7.0 7.2 7.3 7.4 7.4 7.0 6.8 6.7 6.2 5.7 5.8 5.6 5.5 5.7 6.2 5.3 4.9 5.8
Wind_Speed
5 4 5 7 6 4 4 4 4 3 1 1 1 1 1 2 2 3 3 1 2 2 4 4 4 7 4 4 5 4 4 2 5 4 3 3 0 4 4 4 4 5 9
5 1 5 5 6 4 4 4 5 3 2 1 2 1 1 2 3 3 4 3 3 3 2 2 2 2 1 3 3 3 3 2 4 3 1 3 4 3 3 3 4 4 6
5 2 5 5 4 4 5 5 6 6 5 4 1 0 2 2 2 2 2 4 6 5 4 3 2 1 1 2 2 2 3 3 2 4 2 3 2 3 2 1 3 5 3
3 3 4 4 4 6 5 5 6 6 5 4 3 4 3 3 2 2 2 3 7 7 6 5 4 3 1 2 2 0 1 1 1 2 2 1 1 1 4 3 2 4 4
4 5 5 5 5 5 6 6 6 7 6 6 6 5 5 4 3 2 4 4 5 8 9 8 5 4 3 2 2 2 2 1 1 2 1 1 0 1 3 4 3 2 2
4 4 1 3 5 5 5 5 6 8 7 7 7 8 8 6 4 4 4 4 3 4 8 9 8 6 4 4 3 3 4 4 3 3 3 3 2 2 3 3 3 3 3
2 2 4 5 6 7 7 7 7 10 7 8 7 8 8 7 7 6 4 5 4 4 6 6 6 4 7 7 6 5 4 4 3 4 3 3 3 1 1 1 2 3 3
2 4 5 5 6 7 8 8 7 8 7 6 8 7 7 5 5 6 5 5 4 4 5 6 8 9 9 8 7 3 4 4 4 5 4 3 4 3 3 3 2 3 2
2 5 6 6 6 6 7 7 7 6 6 6 5 6 6 6 6 7 5 4 5 5 5 8 6 7 8 7 5 4 5 4 4 5 5 4 4 4 4 4 3 3 2
5 6 5 6 5 5 6 7 7 6 6 6 4 4 6 6 6 5 7 7 7 6 6 7 7 6 6 6 6 5 5 5 4 4 5 5 4 4 4 4 3 3 4
5 4 5 5 5 5 6 7 7 8 8 7 6 6 6 5 5 5 6 7 6 7 7 7 7 7 7 7 7 7 7 7 7 6 6 7 6 4 4 3 3 3 3
5 4 4 4 5 6 6 6 6 7 7 6 6 6 5 4 5 6 7 6 8 7 8 7 8 9 9 9 10 10 9 10 10 9 7 8 5 6 5 4 5 4 4
3 3 4 4 5 6 6 6 6 7 7 6 7 7 7 7 7 7 7 6 7 7 7 7 9 9 10 10 11 11 11 10 10 9 9 9 7 7 4 5 5 4 4
2 1 2 4 5 5 5 6 7 6 6 7 7 7 7 7 6 7 7 6 6 7 7 7 9 9 10 10 11 11 12 11 11 10 10 10 10 9 7 6 6 5 4
3 1 1 3 4 6 6 6 6 7 6 7 7 7 7 7 7 7 7 8 8 8 7 8 8 9 8 8 9 11 12 11 11 10 10 11 12 17 13 6 7 6 5
4 1 1 3 4 5 5 6 6 7 6 6 6 6 7 7 7 8 9 8 9 8 7 8 8 9 8 17 20 17 10 12 12 12 11 10 15 17 20 20 17 11 7
5 2 1 2 4 4 5 6 7 6 6 7 7 7 7 8 9 9 9 10 10 8 10 9 9 10 10 20 22 22 13 11 12 12 10 9 9 14 10 17 20 20 20
5 3 2 3 3 4 6 6 5 5 6 7 7 7 7 9 10 9 10 10 9 10 10 10 11 12 10 21 22 21 14 11 13 13 12 11 10 10 10 9 8 8 7
5 3 2 2 3 5 5 6 5 6 7 7 8 10 10 11 11 11 11 11 10 11 10 10 12 13 14 22 24 19 10 11 13 12 11 12 11 15 18 9 9 9 8
3 3 3 2 2 5 5 7 7 6 7 9 10 10 10 10 12 12 12 9 9 12 10 12 11 16 15 21 24 19 9 11 9 9 11 22 14 19 19 12 9 10 9
4 1 2 4 4 5 5 6 6 7 8 9 9 10 10 11 11 10 11 11 12 12 12 13 12 12 14 15 23 23 11 9 8 8 8 8 23 20 19 21 10 11 7
2 1 3 5 5 4 3 7 7 8 7 8 10 11 11 9 10 12 12 10 11 13 13 12 12 10 11 18 19 23 22 18 10 9 7 8 19 19 19 18 19 19 16
2 1 3 7 7 6 4 7 8 6 8 7 9 10 10 9 9 9 11 10 10 9 11 10 11 11 10 11 21 23 24 20 13 8 10 14 16 19 16 20 19 18 6
2 1 4 6 8 7 7 7 8 8 7 8 10 10 10 12 10 8 7 8 9 9 10 11 11 11 12 11 8 7 9 14 12 15 11 11 12 12 10 9 11 5 5
2 2 5 6 9 7 9 10 9 8 10 9 9 10 8 9 10 9 8 9 10 11 12 13 12 12 13 13 19 15 7 6 9 9 4 6 5 6 5 4 5 4 4
4 5 6 6 9 8 9 12 8 8 11 10 8 8 9 8 9 9 11 18 20 24 23 23 19 13 21 27 27 27 18 18 19 6 4 6 7 7 7 6 6 5 8
Wind_Direction
292 239 177 151 143 157 168 182 192 221 198 27 356 337 238 252 268 263 253 282 309 343 8 9 9 15 21 351 349 326 344 318 339 339 355 338 347 46 57 55 42 42 35
351 48 144 142 165 177 204 222 225 223 219 207 189 214 245 259 249 254 258 263 270 303 316 351 3 27 21 6 2 19 331 321 7 8 290 355 336 5 27 49 40 30 47
339 128 142 172 180 215 229 240 239 237 227 213 188 351 295 287 275 257 257 244 240 248 256 268 272 305 18 344 338 5 25 343 327 27 79 359 330 322 314 41 52 24 22
24 130 176 201 218 250 256 253 246 244 234 209 204 207 219 238 242 242 246 253 240 242 248 262 273 284 276 296 300 4 206 161 304 328 19 180 196 325 316 321 345 6 355
51 169 197 232 255 267 260 259 264 261 245 228 217 216 238 237 250 267 272 269 263 248 244 238 243 252 252 250 259 294 281 265 244 227 300 305 244 189 227 291 310 331 300
60 66 167 257 282 298 295 285 271 264 251 236 228 223 232 241 252 247 253 253 254 255 248 246 241 249 253 255 249 239 229 218 215 217 223 219 219 234 205 258 303 297 291
62 5 356 343 339 339 330 309 273 270 252 237 234 227 232 232 242 245 246 255 255 239 244 231 231 228 234 237 237 237 236 231 222 218 230 228 229 215 238 277 297 299 312
67 49 39 21 360 351 342 329 313 286 291 263 252 235 232 227 234 236 235 247 243 248 242 237 232 229 229 229 229 233 244 236 237 241 231 232 233 217 209 208 202 304 281
61 49 43 25 3 355 339 332 337 314 294 285 269 261 242 234 245 249 246 248 247 252 242 239 236 232 231 231 227 229 239 244 244 242 239 227 235 222 221 220 198 189 293
80 64 35 11 357 342 329 345 349 348 334 339 332 290 274 251 251 256 257 252 260 253 251 246 235 231 228 225 224 231 233 235 237 236 235 230 229 230 224 223 213 200 206
99 63 18 356 343 339 348 342 350 356 3 2 349 339 328 309 287 270 269 260 263 249 246 241 236 229 226 217 218 223 224 227 231 228 226 229 219 222 225 226 229 225 195
109 51 11 348 353 349 349 347 352 4 354 346 355 0 346 330 303 283 273 262 258 255 246 243 237 235 227 218 216 224 222 216 225 224 221 230 224 221 220 216 225 222 215
88 31 13 356 351 344 343 346 355 355 346 348 354 353 352 349 334 319 310 302 285 277 269 248 248 249 239 229 225 223 225 223 226 221 218 224 208 223 212 212 219 223 235
102 50 357 342 341 342 346 354 351 347 343 350 353 352 347 337 327 316 312 307 295 281 276 259 253 248 243 234 231 221 224 223 224 223 220 221 214 215 208 211 214 218 225
142 160 9 346 342 356 356 351 349 348 346 347 346 337 327 325 323 324 319 315 312 306 291 288 277 261 252 251 239 231 229 225 225 222 218 219 216 219 212 205 211 202 214
173 182 24 1 2 353 341 336 339 341 342 330 320 316 322 323 320 319 317 312 303 299 293 289 276 278 268 265 257 244 232 226 222 221 220 219 220 228 228 228 221 205 198
188 189 315 317 329 338 333 343 337 328 327 318 320 322 325 325 320 312 310 311 308 301 299 293 285 278 271 274 271 261 245 229 226 220 214 209 215 215 217 233 235 233 229
197 209 250 310 325 334 339 323 301 294 307 325 326 321 312 314 314 311 307 306 305 300 298 297 293 289 283 281 278 270 255 231 226 220 212 209 207 197 197 208 224 232 234
194 216 253 289 326 321 303 299 324 340 340 322 315 319 320 315 314 310 305 301 300 306 304 297 295 291 290 286 282 278 260 243 226 224 213 208 206 205 211 200 216 227 235
193 213 257 255 298 325 332 345 337 325 308 315 314 309 305 301 306 306 306 305 295 294 296 291 287 284 288 286 287 281 264 252 235 224 218 218 203 205 211 220 203 224 226
192 175 326 307 305 325 339 320 304 307 307 307 302 300 301 302 301 299 302 300 295 293 296 294 293 288 281 285 289 285 267 248 238 228 218 214 216 209 213 221 208 217 204
197 320 333 312 305 293 288 305 309 296 292 297 301 299 291 288 295 291 292 291 293 300 299 298 297 295 293 287 287 291 280 256 235 230 216 206 211 219 221 226 222 218 222
251 305 318 313 307 306 301 289 284 286 288 291 284 289 289 286 283 282 292 299 297 295 296 299 301 302 301 293 291 295 291 264 252 228 215 204 218 221 219 228 224 223 200
298 300 298 301 305 307 293 270 287 290 282 286 291 293 294 299 301 295 292 291 296 300 300 304 299 297 296 295 294 283 285 274 260 227 223 213 206 204 215 217 221 197 182
263 267 302 295 287 289 288 293 289 288 287 287 292 296 292 294 300 295 293 294 289 287 297 296 294 296 295 298 297 289 269 261 254 245 187 192 196 191 195 187 190 186 183
310 310 288 274 283 286 284 287 287 282 284 289 293 294 300 298 296 297 299 289 289 293 297 299 296 294 290 297 300 300 269 261 258 241 208 202 197 189 191 197 197 198 208